Grass Valley, CA

2:20 PM PDT on May 26, 2017 (GMT -0700)
Grass Valley

Weather History for KGOO - April, 2013

Change the Weather History Date:

Wednesday, April 24, 2013

  Actual Average (KAUN) Record (KAUN)
Temperature  
Mean Temperature 66 °F -  
Max Temperature 75 °F 66 °F 86 °F (1962)
Min Temperature 57 °F 45 °F 33 °F (1964)
Cooling Degree Days 1    
Growing Degree Days 16 (Base 50)    
Moisture  
Dew Point 15 °F    
Average Humidity 15    
Maximum Humidity 38    
Minimum Humidity 8    
Precipitation  
Precipitation 0.00 in - - ()
Sea Level Pressure  
Sea Level Pressure 29.92 in    
Wind  
Wind Speed 6 mph (East)    
Max Wind Speed 17 mph    
Max Gust Speed 25 mph    
Visibility 10 miles    
Events      
Averages and records for this station are not official NWS values.
T = Trace of Precipitation, MM = Missing Value Source: NWS Daily Summary

Daily Weather History Graph

Daily Weather History Graph

Search for Another Location

Airport or City:

Trip Planner

Search our weather history database for the weather conditions in past years. The results will help you decide how hot, cold, wet, or windy it might be!

Date:

Astronomy

Apr. 24, 2013 Rise Set
Actual Time 6:14 AM PDT 7:50 PM PDT
Civil Twilight 5:45 AM PDT 8:19 PM PDT
Nautical Twilight 5:11 AM PDT 8:53 PM PDT
Astronomical Twilight 4:35 AM PDT 9:29 PM PDT
Moon 7:00 PM PDT (4/24) 5:20 AM PDT (4/24)
Length of Visible Light 14h 33m
Length of Day
13h 36m
Waxing Gibbous, 98% of the Moon is Illuminated
Apr 24
Waxing Gibbous
Apr 25
Full
May 2
Last Quarter
May 9
New
May 17
First Quarter

Hourly Weather History & Observations

Time (PDT) Temp. Dew Point Humidity Pressure Visibility Wind Dir Wind Speed Gust Speed Precip Events Conditions
12:00 AM 57.2 °F 32.0 °F 38% 29.95 in 10.0 mi NE 3.5 mph - N/A   Clear
12:20 AM 59.0 °F 28.4 °F 31% 29.95 in 10.0 mi Calm Calm - N/A   Clear
12:40 AM 60.8 °F 28.4 °F 29% 29.95 in 10.0 mi Calm Calm - N/A   Clear
1:00 AM 59.0 °F 28.4 °F 31% 29.95 in 10.0 mi Calm Calm - N/A   Clear
1:20 AM 59.0 °F 28.4 °F 31% 29.95 in 10.0 mi Calm Calm - N/A   Clear
1:40 AM 59.0 °F 30.2 °F 34% 29.94 in 10.0 mi Calm Calm - N/A   Clear
2:00 AM 59.0 °F 28.4 °F 31% 29.94 in 10.0 mi Calm Calm - N/A   Clear
2:20 AM 57.2 °F 30.2 °F 36% 29.93 in 10.0 mi Calm Calm - N/A   Clear
2:40 AM 59.0 °F 30.2 °F 34% 29.93 in 10.0 mi East 3.5 mph - N/A   Clear
3:00 AM 57.2 °F 30.2 °F 36% 29.93 in 10.0 mi Calm Calm - N/A   Clear
3:20 AM 59.0 °F 28.4 °F 31% 29.92 in 10.0 mi Calm Calm - N/A   Clear
4:00 AM 59.0 °F 17.6 °F 20% 29.92 in 10.0 mi ESE 4.6 mph - N/A   Clear
4:20 AM 59.0 °F 15.8 °F 19% 29.91 in 10.0 mi East 10.4 mph 16.1 mph N/A   Clear
4:40 AM 59.0 °F 14.0 °F 17% 29.91 in 10.0 mi East 12.7 mph 17.3 mph N/A   Clear
5:00 AM 60.8 °F 10.4 °F 14% 29.91 in 10.0 mi East 13.8 mph 19.6 mph N/A   Clear
5:20 AM 60.8 °F 8.6 °F 13% 29.90 in 10.0 mi East 16.1 mph - N/A   Clear
5:40 AM 60.8 °F 8.6 °F 13% 29.91 in 10.0 mi East 11.5 mph 20.7 mph N/A   Clear
6:00 AM 60.8 °F 8.6 °F 13% 29.91 in 10.0 mi East 15.0 mph 23.0 mph N/A   Clear
6:20 AM 59.0 °F 8.6 °F 14% 29.91 in 10.0 mi East 17.3 mph 24.2 mph N/A   Clear
6:40 AM 59.0 °F 8.6 °F 14% 29.91 in 10.0 mi East 17.3 mph 24.2 mph N/A   Clear
7:00 AM 59.0 °F 8.6 °F 14% 29.92 in 10.0 mi East 17.3 mph 25.3 mph N/A   Clear
7:15 AM 59.0 °F 8.6 °F 14% 29.92 in 10.0 mi East 16.1 mph 24.2 mph N/A   Clear
7:40 AM 60.8 °F 10.4 °F 14% 29.93 in 10.0 mi East 15.0 mph 23.0 mph N/A   Clear
8:00 AM 60.8 °F 10.4 °F 14% 29.94 in 10.0 mi East 16.1 mph 25.3 mph N/A   Clear
8:20 AM 62.6 °F 10.4 °F 13% 29.94 in 10.0 mi East 16.1 mph 24.2 mph N/A   Clear
8:40 AM 62.6 °F 10.4 °F 13% 29.94 in 10.0 mi East 16.1 mph 25.3 mph N/A   Clear
9:00 AM 64.4 °F 12.2 °F 13% 29.95 in 10.0 mi East 17.3 mph 25.3 mph N/A   Clear
9:20 AM 64.4 °F 12.2 °F 13% 29.94 in 10.0 mi East 15.0 mph 25.3 mph N/A   Clear
9:40 AM 66.2 °F 14.0 °F 13% 29.94 in 10.0 mi East 11.5 mph 21.9 mph N/A   Clear
10:00 AM 66.2 °F 12.2 °F 12% 29.95 in 10.0 mi East 13.8 mph 25.3 mph N/A   Clear
10:20 AM 68.0 °F 14.0 °F 12% 29.95 in 10.0 mi East 11.5 mph 18.4 mph N/A   Clear
10:40 AM 68.0 °F 14.0 °F 12% 29.95 in 10.0 mi ESE 9.2 mph 19.6 mph N/A   Clear
11:00 AM 69.8 °F 15.8 °F 13% 29.95 in 10.0 mi ESE 10.4 mph 20.7 mph N/A   Clear
11:15 AM 69.8 °F 14.0 °F 12% 29.95 in 10.0 mi East 11.5 mph 19.6 mph N/A   Clear
11:40 AM 71.6 °F 14.0 °F 11% 29.95 in 10.0 mi ESE 9.2 mph - N/A   Clear
12:00 PM 71.6 °F 15.8 °F 12% 29.95 in 10.0 mi East 9.2 mph - N/A   Clear
12:20 PM 73.4 °F 17.6 °F 12% 29.95 in 10.0 mi ENE 4.6 mph - N/A   Clear
12:40 PM 73.4 °F 15.8 °F 11% 29.95 in 10.0 mi East 6.9 mph - N/A   Clear
1:00 PM 71.6 °F 14.0 °F 11% 29.94 in 10.0 mi East 6.9 mph - N/A   Clear
1:20 PM 73.4 °F 17.6 °F 12% 29.93 in 10.0 mi Calm Calm - N/A   Clear
1:40 PM 73.4 °F 19.4 °F 13% 29.93 in 10.0 mi ESE 6.9 mph - N/A   Clear
2:00 PM 73.4 °F 14.0 °F 10% 29.93 in 10.0 mi ENE 5.8 mph - N/A   Clear
2:20 PM 75.2 °F 15.8 °F 11% 29.92 in 10.0 mi ENE 10.4 mph - N/A   Clear
2:40 PM 75.2 °F 17.6 °F 11% 29.92 in 10.0 mi ENE 3.5 mph - N/A   Clear
3:00 PM 75.2 °F 17.6 °F 11% 29.92 in 10.0 mi SE 6.9 mph - N/A   Clear
3:20 PM 73.4 °F 14.0 °F 10% 29.91 in 10.0 mi ESE 8.1 mph - N/A   Clear
3:40 PM 75.2 °F 15.8 °F 11% 29.90 in 9.0 mi Calm Calm - N/A   Clear
4:00 PM 75.2 °F 14.0 °F 10% 29.89 in 10.0 mi East 8.1 mph - N/A   Clear
4:20 PM 75.2 °F 14.0 °F 10% 29.89 in 10.0 mi East 4.6 mph - N/A   Clear
4:40 PM 75.2 °F 8.6 °F 8% 29.89 in 10.0 mi NW 5.8 mph - N/A   Clear
5:00 PM 75.2 °F 10.4 °F 8% 29.88 in 10.0 mi East 4.6 mph - N/A   Clear
5:20 PM 73.4 °F 8.6 °F 8% 29.88 in 10.0 mi Calm Calm - N/A   Clear
5:40 PM 73.4 °F 8.6 °F 8% 29.88 in 10.0 mi Calm Calm - N/A   Clear
6:00 PM 73.4 °F 14.0 °F 10% 29.88 in 10.0 mi Calm Calm - N/A   Clear
6:20 PM 73.4 °F 14.0 °F 10% 29.88 in 10.0 mi East 5.8 mph - N/A   Clear
6:40 PM 73.4 °F 8.6 °F 8% 29.88 in 10.0 mi NE 6.9 mph - N/A   Clear
7:00 PM 73.4 °F 10.4 °F 9% 29.88 in 10.0 mi Calm Calm - N/A   Clear
8:00 PM 68.0 °F 15.8 °F 13% 29.88 in 10.0 mi Calm Calm - N/A   Clear
8:20 PM 66.2 °F 15.8 °F 14% 29.89 in 10.0 mi ENE 8.1 mph - N/A   Clear
8:40 PM 66.2 °F 10.4 °F 11% 29.90 in 10.0 mi ENE 8.1 mph - N/A   Clear
9:00 PM 66.2 °F 8.6 °F 11% 29.90 in 10.0 mi ENE 9.2 mph 17.3 mph N/A   Clear
9:20 PM 66.2 °F 6.8 °F 10% 29.91 in 10.0 mi ENE 10.4 mph - N/A   Clear
9:40 PM 66.2 °F 6.8 °F 10% 29.91 in 10.0 mi East 8.1 mph - N/A   Clear
10:00 PM 64.4 °F 6.8 °F 10% 29.91 in 10.0 mi East 11.5 mph 18.4 mph N/A   Clear
10:20 PM 64.4 °F 6.8 °F 10% 29.92 in 10.0 mi East 8.1 mph - N/A   Clear
10:40 PM 64.4 °F 6.8 °F 10% 29.92 in 10.0 mi East 9.2 mph - N/A   Clear
11:00 PM 64.4 °F 6.8 °F 10% 29.92 in 10.0 mi East 8.1 mph - N/A   Clear
11:20 PM 64.4 °F 6.8 °F 10% 29.92 in 10.0 mi East 5.8 mph - N/A   Clear
11:40 PM 62.6 °F 6.8 °F 11% 29.93 in 10.0 mi East 9.2 mph - N/A   Clear